Location: Khawr Adind?n
(22.1815°N, 31.5689°E)
Time: 21:01:57
(UTC+00:00)

Daily predictions for brighter satellites

Satellite Brightness Start Highest point End
(mag) Time Altitude Azimuth Time Altitude Azimuth Time Altitude Azimuth
Cosmos 1943 3.3 16:36:22 10° N 16:41:58 62° ENE 16:47:33 10° SSE
Okean O Rocket 4.0 16:43:57 10° SSW 16:47:39 26° W 16:51:22 10° NW
ISS -1.8 16:49:09 10° SE 16:50:21 12° SE 16:51:33 10° ESE
GPS 2-18 Rocket1 3.0 16:47:49 10° W 16:51:35 72° S 16:55:17 10° E
Cosmos 482 Debris 2.8 16:49:42 10° NW 16:51:40 57° SW 16:53:23 10° SSE
SAR-Lupe-4 3.6 16:53:11 10° NNE 16:56:42 54° ESE 17:00:11 10° S
FALCON 9 DEB 4.5 16:55:36 10° N 16:57:59 21° NE 17:00:14 11° E
Cosmos 1844 4.1 16:52:47 10° SSW 16:58:31 70° WNW 17:04:11 10° NNE
YAOGAN 1 2.6 16:54:30 10° SSE 16:58:48 87° ENE 17:03:08 10° N
SL-08 RB Rocket 4.0 16:54:24 10° SSE 16:58:48 50° ENE 17:03:10 10° N
Cosmos 1766 Rocket 4.2 16:54:44 10° NNW 16:59:06 61° W 17:03:29 10° S
Okean-O 2.6 16:55:02 10° SSE 16:59:24 66° ENE 17:03:47 10° N
Cosmos 1486 Rocket 4.3 16:54:18 10° SSW 16:59:35 75° WNW 17:04:55 10° N
Cosmos 2084 3.5 16:57:13 10° SSW 17:01:17 79° WNW 17:05:24 10° NNE
SAR-Lupe-1 4.1 17:04:35 10° N 17:08:09 85° WNW 17:11:43 10° SSW
Lacrosse 5 rocket 4.3 17:07:56 10° W 17:09:44 12° WSW 17:11:33 10° SW
Tianhe-1 0.9 17:08:02 10° SW 17:11:07 85° SE 17:14:15 10° NE
USA 267 4.2 17:06:21 11° ESE 17:11:52 33° NE 17:17:34 10° NNW
MOS 1-B Rocket 4.2 17:06:53 10° NNE 17:13:08 48° E 17:18:41 10° S
Cosmos 1553 Rocket 3.9 17:07:40 10° S 17:13:44 75° E 17:19:53 10° N
FALCON 9 DEB 4.3 17:12:10 10° N 17:14:42 24° NE 17:16:06 17° E
Cosmos 921 Rocket 3.6 17:15:10 10° NNW 17:19:16 56° W 17:23:20 10° S
Cosmos 1244 Rocket 4.4 17:16:52 10° N 17:23:03 69° E 17:29:10 10° SSE
[s.n.48412] 2.8 17:20:37 10° NW 17:23:20 60° SW 17:24:48 23° SSE
[s.n.48411] 2.9 17:20:41 10° NW 17:23:22 60° SW 17:24:50 23° SSE
[s.n.48410] 2.9 17:20:52 10° NW 17:23:34 59° SW 17:25:03 23° SSE
[s.n.48409] 2.9 17:20:57 10° NW 17:23:39 59° SW 17:25:07 23° SSE
[s.n.48408] 2.9 17:21:04 10° NW 17:23:45 59° SW 17:25:13 23° SSE
[s.n.48407] 2.9 17:21:12 10° NW 17:23:54 58° SW 17:25:21 23° SSE
[s.n.48406] 2.9 17:21:19 10° NW 17:24:01 58° SW 17:25:28 23° SSE
[s.n.48405] 2.9 17:21:23 10° NW 17:24:04 58° SW 17:25:31 23° SSE
[s.n.48404] 2.9 17:21:32 10° NW 17:24:14 58° SW 17:25:41 23° SSE
[s.n.48403] 2.9 17:21:40 10° NW 17:24:21 57° SW 17:25:49 23° SSE
[s.n.48402] 2.9 17:21:47 10° NW 17:24:29 57° SW 17:25:56 23° SSE
[s.n.48401] 3.0 17:21:55 10° NW 17:24:37 57° SW 17:26:05 23° SSE
[s.n.48400] 3.0 17:22:04 10° NW 17:24:45 56° SW 17:26:11 23° SSE
[s.n.48399] 3.0 17:22:04 10° NW 17:24:46 56° SW 17:26:12 23° SSE
[s.n.48398] 3.0 17:22:12 10° NW 17:24:54 56° SW 17:26:21 23° SSE
[s.n.48397] 3.0 17:22:19 10° NW 17:25:01 56° SW 17:26:28 23° SSE
[s.n.48396] 3.0 17:22:27 10° NW 17:25:09 55° SW 17:26:35 23° SSE
[s.n.48395] 3.0 17:22:36 10° NW 17:25:18 55° SW 17:26:43 23° SSE
[s.n.48394] 3.0 17:22:46 10° NW 17:25:28 55° SW 17:26:53 23° SSE
[s.n.48393] 3.0 17:22:53 10° NW 17:25:34 54° SW 17:27:00 23° SSE
[s.n.48392] 3.0 17:23:01 10° NW 17:25:42 54° SW 17:27:07 23° SSE
[s.n.48391] 3.0 17:23:09 10° NW 17:25:50 54° SW 17:27:14 24° SSE
[s.n.48390] 3.1 17:23:15 10° NW 17:25:57 54° SW 17:27:21 24° SSE
[s.n.48389] 3.1 17:23:23 10° NW 17:26:04 53° SW 17:27:29 24° SSE
[s.n.48388] 3.1 17:23:31 10° NW 17:26:11 53° SW 17:27:35 24° SSE
[s.n.48387] 3.1 17:23:31 10° NW 17:26:13 53° SW 17:27:37 24° SSE
[s.n.48386] 3.1 17:23:39 10° NW 17:26:21 53° SW 17:27:44 24° SSE
[s.n.48385] 3.1 17:23:46 10° NW 17:26:28 52° SW 17:27:51 24° SSE
[s.n.48384] 3.1 17:23:56 10° NW 17:26:37 52° SW 17:28:00 24° SSE
[s.n.48383] 3.1 17:24:03 10° NW 17:26:43 52° SW 17:28:06 24° SSE
[s.n.48382] 3.1 17:24:11 10° NW 17:26:52 51° SW 17:28:14 24° SSE
[s.n.48381] 3.1 17:24:20 10° NW 17:27:00 51° SW 17:28:22 24° SSE
[s.n.48380] 3.1 17:24:26 10° NW 17:27:07 51° SW 17:28:29 24° SSE
Intercosmos 24 4.1 17:22:53 10° S 17:27:08 47° E 17:30:37 10° NNE
[s.n.48379] 3.2 17:24:34 10° NW 17:27:15 50° SW 17:28:37 24° SSE
[s.n.48378] 3.2 17:24:40 10° NW 17:27:22 51° SW 17:28:46 24° SSE
[s.n.48377] 3.2 17:24:49 10° NW 17:27:29 50° SW 17:28:50 24° SSE
[s.n.48376] 3.2 17:24:53 10° NW 17:27:34 50° SW 17:28:54 24° SSE
[s.n.48375] 3.2 17:25:03 10° NW 17:27:43 49° SW 17:29:03 24° SSE
[s.n.48374] 3.2 17:25:09 10° NW 17:27:49 49° SW 17:29:09 24° SSE
[s.n.48373] 3.2 17:25:18 10° NW 17:27:58 49° SW 17:29:17 24° S
[s.n.48372] 3.2 17:25:19 10° NW 17:28:00 49° SW 17:29:22 24° SSE
[s.n.48371] 3.2 17:25:27 10° NW 17:28:07 48° SW 17:29:27 24° S
[s.n.48370] 3.2 17:25:35 10° NW 17:28:15 48° SW 17:29:35 24° S
[s.n.48369] 3.2 17:25:44 10° NW 17:28:24 48° SW 17:29:43 24° S
[s.n.48368] 3.3 17:25:50 10° NW 17:28:30 48° SW 17:29:50 24° S
Cosmos 1417 Rocket 4.4 17:22:16 10° S 17:28:31 84° E 17:34:42 10° N
Nadezhda 2 Rocket 4.4 17:22:24 10° N 17:28:31 86° E 17:34:38 10° S
[s.n.48367] 3.3 17:26:00 10° NW 17:28:39 47° SW 17:29:58 24° S
[s.n.48366] 3.3 17:26:06 10° NW 17:28:48 47° SW 17:30:08 24° S
GPS 2-17 Rocket1 3.1 17:24:07 10° W 17:28:49 71° S 17:31:46 23° E
[s.n.48365] 3.3 17:26:08 10° NW 17:28:49 47° SW 17:30:09 24° S
[s.n.48364] 3.3 17:26:16 10° NW 17:28:56 47° SW 17:30:15 24° S
[s.n.48363] 3.3 17:26:26 10° NW 17:29:05 47° SW 17:30:23 24° S
[s.n.48362] 3.3 17:26:33 10° NW 17:29:12 46° SW 17:30:30 24° S
ARGOS 4.0 17:24:03 10° S 17:29:12 49° W 17:34:23 10° NNW
[s.n.48361] 3.3 17:26:41 10° NW 17:29:20 46° SW 17:30:38 24° S
[s.n.48360] 3.3 17:26:49 10° NW 17:29:28 46° SW 17:30:45 24° S
[s.n.48359] 3.3 17:26:57 10° NW 17:29:36 45° SW 17:30:53 24° S
[s.n.48358] 3.3 17:27:04 10° NW 17:29:43 45° SW 17:31:00 24° S
[s.n.48357] 3.4 17:27:12 10° NW 17:29:51 45° SW 17:31:07 24° S
[s.n.48356] 3.4 17:27:21 10° NW 17:29:58 45° SW 17:31:15 24° S
Ariane H10 4.2 17:19:30 10° WSW 17:30:06 25° SSW 17:33:06 15° SSE
[s.n.48355] 3.4 17:27:27 10° NW 17:30:06 44° SW 17:31:21 24° S
[s.n.48354] 3.4 17:27:31 10° NW 17:30:09 44° SW 17:31:25 24° S
[s.n.48353] 3.4 17:27:38 10° NW 17:30:16 44° SW 17:31:32 24° S
Geosat 3.9 17:29:52 14° SSE 17:34:15 89° ENE 17:39:18 10° NNW
SL-4 R/B 2.9 17:31:28 10° NNW 17:35:43 42° NE 17:37:43 27° E
Meteor 1-26 Rocket 4.3 17:38:43 10° S 17:44:19 53° E 17:49:45 10° NNE
FALCON 9 DEB 2.6 17:44:57 10° NW 17:48:00 86° ENE 17:48:10 77° SE
Cosmos 1242 Rocket 2.6 17:44:27 10° S 17:48:02 76° W 17:51:36 10° N
Cosmos 1777 Rocket 3.9 17:44:57 10° S 17:50:04 62° ESE 17:55:11 10° NNE
Mugunghwa Rocket 4.2 17:47:05 10° W 17:53:21 69° N 17:58:17 19° ENE
Ariane Rocket 3.4 17:55:52 38° E 17:56:47 41° ENE 18:01:30 10° N
Cosmos 1805 Rocket 3.4 17:54:49 10° N 17:59:10 76° E 18:00:22 47° SSE
USA 186 2.5 17:59:28 40° W 17:59:28 40° W 18:01:35 10° NNW
Cosmos 1328 Rocket 3.8 18:00:12 48° E 18:00:12 48° E 18:04:22 10° NNE
GEOS 3 Rocket 4.0 17:58:47 26° SSE 18:01:48 62° WSW 18:07:07 10° NW
ASTRO E2 2.9 17:58:04 10° WNW 18:01:59 55° SSW 18:02:14 54° S
CZ-2C R/B 2.9 18:03:02 10° SW 18:04:37 21° SSW 18:04:37 21° SSW
Cosmos 2278 Rocket 2.1 18:01:17 10° SSW 18:06:56 84° ESE 18:12:36 10° NNE
Helios 1A Rocket 4.3 18:05:37 17° SSW 18:08:20 36° W 18:12:09 10° NNW
Delta 202 3.6 18:04:48 10° WSW 18:10:21 59° S 18:11:04 53° SE
OBJECT-B 1.5 18:10:46 52° W 18:10:46 52° W 18:13:44 10° NNW
Meteor 1-20 Rocket 4.0 18:08:49 10° N 18:14:18 71° E 18:15:21 56° SE
Cosmos 1386 Rocket 4.4 18:10:57 10° N 18:17:03 87° W 18:19:50 35° S
CZ-4C R/B 4.4 18:11:23 10° N 18:17:14 22° NE 18:18:46 21° ENE
Resurs 1-3 3.7 18:20:20 65° NNE 18:20:20 65° NNE 18:24:16 10° N
Meteor 2-17 Rocket 4.4 18:14:29 10° N 18:20:31 57° E 18:21:04 55° ESE
ISS -1.8 18:23:52 10° WSW 18:26:39 30° NW 18:26:39 30° NW
SJ 16-02 2.6 18:32:14 34° NNE 18:32:14 34° NNE 18:34:46 10° NNE
IUS-13 SRM-1 4.4 18:27:39 10° WSW 18:40:21 10° ENE 18:28:10 17° WSW
Cosmos 1782 4.1 18:32:11 36° WSW 18:32:43 38° W 18:36:27 10° NNW
ATLAS 5 CENTAUR R/B 2.7 18:26:47 10° NNW 18:33:01 59° ENE 18:33:35 57° E
Cosmos 1666 Rocket 4.4 18:29:45 10° N 18:32:46 44° N 18:32:46 44° N
Cosmos 1745 Rocket 4.5 18:29:36 10° NNW 18:35:33 55° W 18:38:21 31° SSW
Cosmos 1709 Rocket 3.7 18:31:42 10° N 18:37:48 79° E 18:38:02 77° ESE
Sich 1 4.3 18:38:47 10° NNW 18:42:49 37° W 18:42:58 37° W
SPOT 3 Rocket 4.3 18:55:03 47° N 18:55:03 47° N 18:58:40 10° N
USA 267 3.8 18:53:42 45° SSW 18:54:35 47° SW 19:00:51 10° NW
Cosmos 1833 Rocket 4.2 18:50:11 10° N 18:53:07 26° NNE 18:53:07 26° NNE
Resurs 01 Rocket 3.6 19:11:25 26° NW 19:11:25 26° NW 19:13:34 10° NNW
Cosmos 2082 Rocket 4.3 19:34:11 10° N 19:35:48 19° N 19:35:48 19° N
Kakehashi 4.4 19:35:38 10° WNW 19:44:08 59° WNW 19:44:08 59° WNW
CZ-4C R/B 3.7 19:58:10 10° NNW 20:03:58 51° NW 20:03:58 51° NW
Milstar 3 3.8 20:03:03 10° W 20:15:26 60° NNW 20:15:26 60° NNW
SL-16 R/B 4.5 23:15:11 24° NNE 23:15:11 24° NNE 23:18:01 10° N
ADEOS II 4.4 23:40:45 10° NNE 23:42:11 19° NNE 23:42:11 19° NNE
Atlas Centaur 2 3.9 23:55:42 37° E 23:55:42 37° E 23:59:45 10° ENE
